Regional Weather Roundup
Issued by NWS Huntsville, AL

Home | Current Version | Previous Version | Text Only | Print | Product List | Glossary On
Versions: 1 2 3 4 5 6 7 8 9 10 11 12 13 14 15 16 17 18 19 20 21 22 23 24 25 26 27 28 29 30 31 32 33 34 35 36 37 38 39 40 41 42 43 44 45 46 47 48 49 50
000
ASUS44 KHUN 290910
RWRHUN

WEATHER ROUNDUP FOR THE TENNESSEE VALLEY
NATIONAL WEATHER SERVICE HUNTSVILLE AL
400 AM CDT WED JUL 29 2015

ALZ001>004-291000-
NORTHWEST ALABAMA

CITY           SKY/WX    TMP DP  RH WIND       PRES   REMARKS
COURTLAND HCN    N/A     75 N/A N/A CALM        N/A
BANKHEAD NF      N/A     74  74 100 CALM        N/A
RUSSELLVILLE     N/A     75 N/A N/A MISG        N/A
SHOALS AIRPORT MOCLDY    77  71  82 CALM      29.99F
SHOALS TVA RES   N/A     75 N/A N/A MISG        N/A
$$

ALZ005>007-016-291000-
NORTH CENTRAL ALABAMA

CITY           SKY/WX    TMP DP  RH WIND       PRES   REMARKS
CULLMAN AG STN   N/A     77 N/A N/A N5          N/A
DECATUR AP     MOCLDY    76  74  93 W5        29.99R
HUNTSVILLE AP  MOCLDY    79  73  82 E6        29.97F
HUN NWS/UAH      N/A     77  71  81 E1          N/A
MERIDIANVILLE  MOCLDY    73  70  88 E6        29.99F
REDSTONE ARSN  CLOUDY    76  74  92 NE3       29.97F
VINEMONT AP    FAIR      74  72  92 CALM      30.01F
$$

ALZ008>010-291000-
NORTHEAST ALABAMA

CITY           SKY/WX    TMP DP  RH WIND       PRES   REMARKS
ALBERTVILLE    PTCLDY    73  73 100 NW5       30.01R
FORT PAYNE     PTCLDY    72  68  88 CALM      29.99R
SCOTTSBORO AP  CLOUDY    72  72 100 CALM      30.00S
SCOTTSBORO HCN   N/A     72 N/A N/A MISG        N/A
VALLEY HEAD      N/A     72 N/A N/A MISG        N/A
$$

TNZ076-096-097-291000-
SOUTHEASTERN MIDDLE TENNESSEE

CITY           SKY/WX    TMP DP  RH WIND       PRES   REMARKS
TULLAHOMA      CLEAR     73  72  94 CALM      30.02F
WINCHESTER     CLOUDY    73  72  94 CALM      30.02S
$$

...SURROUNDING SITES...

CITY           SKY/WX    TMP DP  RH WIND       PRES   REMARKS
ATLANTA        MOCLDY    76  71  85 NW6       29.96S
ANNISTON       CLEAR     74  71  91 CALM      29.98R
BIRMINGHAM     PTCLDY    78  75  90 N3        30.00R
CHATTANOOGA    CLEAR     76  73  91 CALM      29.98F
DALTON         PTCLDY    72  72 100 CALM      29.98S
GADSDEN        CLEAR     73  68  83 CALM      29.97R
GOLDEN TRNGL   CLEAR     77  72  83 CALM      29.96S
HALEYVILLE     FAIR      75  75 100 CALM      30.02F
JACKSON TN     PTCLDY    76  72  87 S3        29.97R
MEMPHIS        CLEAR     83  75  77 W3        29.97R HX  90
NASHVILLE      MOCLDY    74  74 100 CALM      29.99R
ROME           MOCLDY    73  72  96 NE6       29.97S FOG
SAVANNAH       CLEAR     72  32  23 CALM      30.00R
TUPELO         CLEAR     79  77  94 CALM      29.97S
TUSCALOOSA     CLEAR     78  76  93 CALM      29.96R
$$

...GULF COAST WEATHER...

CITY           SKY/WX    TMP DP  RH WIND       PRES   REMARKS
GULFPORT       MOCLDY    80  75  84 W3        29.96S
PASCAGOULA     PTCLDY    78  76  93 W3        29.96R
MOBILE         CLEAR     78  73  84 W5        29.97S
GULF SHORES    MOSUNNY   81  76  84 NW5       29.95S
PENSACOLA      PTCLDY    80  75  84 W3        29.94S
DESTIN         CLEAR     83  76  79 VRB3      29.93F HX  91
PANAMA CITY    PTCLDY    83  79  87 NW8       29.92F HX  93
APPALACHICOLA  PTCLDY    83  79  88 W6        29.92F HX  94
$$



USA.gov is the U.S. government's official web portal to all federal, state and local government web resources and services.